SKY MEXICO-1

Last updated on Tue Sep 16 2025 00:02:48 GMT+0000 (Coordinated Universal Time)

1 40664U 15026B 25258.49756222 -.00000251 00000+0 00000+0 0 9990 2 40664 0.0160 123.0441 0002161 67.5641 264.4603 1.00271289 37693
UTC large
Height (km)
Speed (km/s)
/
Latitude / Longitude
Inclination (degrees)
Orbital Period (minutes)
Azimuth
Elevation
Range (km)
Doppler Factor

Next 0 passes for location: London (51.5072 / 0.1276)

Sorry there are no passes over London.